timestamp,wind_dir_avg,wind_spd_avg,wind_spd_max_dir,wind_spd_gust,battery_voltage,lat,long
2022-12-25 00:04:00+00:00,217.0,5.47,220.0,5.78,12.17,47.59359,-54.27349
2022-12-25 00:14:01+00:00,212.0,6.38,211.0,7.04,12.17,47.59359,-54.27349
2022-12-25 00:24:01+00:00,220.0,6.28,221.0,7.22,12.17,47.59359,-54.27349
2022-12-25 00:34:01+00:00,219.0,5.58,221.0,5.93,12.17,47.59359,-54.27349
2022-12-25 00:44:01+00:00,220.0,5.47,234.0,7.34,12.17,47.59359,-54.27349
2022-12-25 00:54:01+00:00,238.0,6.47,239.0,7.32,12.17,47.59359,-54.27349
2022-12-25 01:04:01+00:00,223.0,4.32,237.0,6.62,12.17,47.59359,-54.27349
2022-12-25 01:14:01+00:00,223.0,5.53,230.0,7.6,12.17,47.59359,-54.27349
2022-12-25 01:24:01+00:00,215.0,6.15,216.0,6.89,12.17,47.59359,-54.27349
2022-12-25 01:34:01+00:00,184.0,4.77,187.0,5.41,12.17,47.59359,-54.27349
2022-12-25 01:44:01+00:00,219.0,4.99,234.0,6.45,12.17,47.59359,-54.27349
2022-12-25 01:54:01+00:00,228.0,4.98,231.0,5.59,12.17,47.59359,-54.27349
2022-12-25 02:04:01+00:00,230.0,6.38,234.0,6.86,12.17,47.59359,-54.27349
2022-12-25 02:14:01+00:00,221.0,8.18,221.0,9.44,12.17,47.59359,-54.27349
2022-12-25 02:24:01+00:00,211.0,7.53,214.0,8.22,12.17,47.59359,-54.27349
2022-12-25 02:34:01+00:00,226.0,5.77,229.0,6.76,12.17,47.59359,-54.27349
2022-12-25 02:44:01+00:00,226.0,5.29,228.0,6.13,12.17,47.59359,-54.27349
2022-12-25 02:54:01+00:00,222.0,5.71,227.0,6.51,12.17,47.59359,-54.27349
2022-12-25 03:04:01+00:00,218.0,5.35,235.0,7.5,12.17,47.59359,-54.27349
2022-12-25 03:14:00+00:00,217.0,6.43,229.0,7.98,12.17,47.59359,-54.27349
2022-12-25 03:24:00+00:00,214.0,5.86,216.0,7.16,12.17,47.59359,-54.27349
2022-12-25 03:34:00+00:00,214.0,3.7,225.0,4.77,12.17,47.59359,-54.27349
2022-12-25 03:44:00+00:00,236.0,6.54,233.0,8.18,12.17,47.59359,-54.27349
2022-12-25 03:54:00+00:00,263.0,6.08,255.0,6.65,12.17,47.59359,-54.27349
2022-12-25 04:04:00+00:00,249.0,6.08,250.0,6.93,12.17,47.59359,-54.27349
2022-12-25 04:14:00+00:00,262.0,4.79,263.0,5.86,12.17,47.59359,-54.27349
2022-12-25 04:24:00+00:00,284.0,6.23,288.0,7.57,12.17,47.59359,-54.27349
2022-12-25 04:34:00+00:00,280.0,7.48,281.0,10.76,12.17,47.59359,-54.27349
2022-12-25 04:44:00+00:00,324.0,9.26,315.0,11.25,12.17,47.59359,-54.27349
2022-12-25 04:54:00+00:00,312.0,9.39,315.0,12.51,12.17,47.59359,-54.27349
2022-12-25 05:04:00+00:00,301.0,10.65,297.0,13.4,12.17,47.59359,-54.27349
2022-12-25 05:14:00+00:00,296.0,7.74,304.0,9.39,12.17,47.59359,-54.27349
2022-12-25 05:24:00+00:00,289.0,5.59,292.0,7.0,12.17,47.59359,-54.27349
2022-12-25 05:34:00+00:00,281.0,6.5,274.0,7.76,12.17,47.59359,-54.27349
2022-12-25 05:44:00+00:00,300.0,8.19,302.0,9.73,12.17,47.59359,-54.27349
2022-12-25 05:54:00+00:00,292.0,7.02,297.0,7.93,12.17,47.59359,-54.27349
2022-12-25 06:04:00+00:00,289.0,5.15,292.0,6.1,12.17,47.59359,-54.27349
2022-12-25 06:14:00+00:00,295.0,4.78,292.0,5.86,12.17,47.59359,-54.27349
2022-12-25 06:24:00+00:00,287.0,4.35,295.0,4.88,12.17,47.59359,-54.27349
2022-12-25 06:34:00+00:00,274.0,2.83,301.0,3.72,12.17,47.59359,-54.27349
2022-12-25 06:44:00+00:00,271.0,3.8,267.0,4.77,12.17,47.59359,-54.27349
2022-12-25 06:54:00+00:00,280.0,5.32,283.0,6.3,12.17,47.59359,-54.27349
2022-12-25 07:04:00+00:00,269.0,5.4,277.0,5.97,12.17,47.59359,-54.27349
2022-12-25 07:14:00+00:00,265.0,6.28,263.0,7.14,12.17,47.59359,-54.27349
2022-12-25 07:24:00+00:00,260.0,4.35,255.0,4.83,12.17,47.59359,-54.27349
2022-12-25 07:34:00+00:00,249.0,3.7,256.0,4.77,12.17,47.59359,-54.27349
2022-12-25 07:44:00+00:00,261.0,6.49,261.0,7.16,12.17,47.59359,-54.27349
2022-12-25 07:54:00+00:00,261.0,6.38,263.0,7.21,12.17,47.59359,-54.27349
2022-12-25 08:04:00+00:00,262.0,4.73,262.0,5.2,12.17,47.59359,-54.27349
2022-12-25 08:14:00+00:00,260.0,5.75,261.0,6.39,12.17,47.59359,-54.27349
2022-12-25 08:24:00+00:00,259.0,6.96,256.0,7.76,12.17,47.59359,-54.27349
2022-12-25 08:34:00+00:00,257.0,6.71,257.0,7.69,12.17,47.59359,-54.27349
2022-12-25 08:44:00+00:00,258.0,6.77,261.0,8.26,12.17,47.59359,-54.27349
2022-12-25 08:54:00+00:00,249.0,6.54,245.0,7.52,12.17,47.59359,-54.27349
2022-12-25 09:04:00+00:00,226.0,4.81,233.0,5.79,12.17,47.59359,-54.27349
2022-12-25 09:14:00+00:00,237.0,5.46,233.0,6.11,12.09,47.59359,-54.27349
2022-12-25 09:24:00+00:00,234.0,4.82,238.0,6.04,12.09,47.59359,-54.27349
2022-12-25 09:34:00+00:00,226.0,4.7,231.0,5.51,12.09,47.59359,-54.27349
2022-12-25 09:44:00+00:00,230.0,6.39,230.0,7.07,12.09,47.59359,-54.27349
2022-12-25 09:54:00+00:00,228.0,6.66,233.0,7.99,12.09,47.59359,-54.27349
2022-12-25 10:04:00+00:00,229.0,6.44,231.0,7.33,12.09,47.59359,-54.27349
2022-12-25 10:14:00+00:00,226.0,6.24,220.0,7.22,12.09,47.59359,-54.27349
2022-12-25 10:24:00+00:00,221.0,6.78,221.0,7.96,12.09,47.59359,-54.27349
2022-12-25 10:34:00+00:00,225.0,6.88,223.0,7.87,12.09,47.59359,-54.27349
2022-12-25 10:44:00+00:00,225.0,6.73,225.0,7.59,12.09,47.59359,-54.27349
2022-12-25 10:54:00+00:00,220.0,6.38,217.0,7.84,12.09,47.59359,-54.27349
2022-12-25 11:04:00+00:00,226.0,7.18,228.0,8.42,12.09,47.59359,-54.27349
2022-12-25 11:14:00+00:00,224.0,6.43,225.0,7.08,12.09,47.59359,-54.27349
2022-12-25 11:24:00+00:00,224.0,6.4,224.0,7.05,12.09,47.59359,-54.27349
2022-12-25 11:34:00+00:00,227.0,6.27,229.0,7.24,12.09,47.59359,-54.27349
2022-12-25 11:44:00+00:00,226.0,7.03,224.0,8.3,12.09,47.59359,-54.27349
2022-12-25 11:54:00+00:00,226.0,6.89,220.0,7.59,12.09,47.59359,-54.27349
2022-12-25 12:04:00+00:00,228.0,6.44,229.0,8.4,12.09,47.59359,-54.27349
2022-12-25 12:14:00+00:00,228.0,7.27,217.0,8.54,12.17,47.59359,-54.27349
2022-12-25 12:24:00+00:00,231.0,6.07,228.0,7.17,12.17,47.59359,-54.27349
2022-12-25 12:34:00+00:00,215.0,5.15,215.0,5.84,12.17,47.59359,-54.27349
2022-12-25 12:44:00+00:00,213.0,5.89,212.0,6.34,12.17,47.59359,-54.27349
2022-12-25 12:54:00+00:00,213.0,5.88,214.0,6.62,12.17,47.59359,-54.27349
2022-12-25 13:04:00+00:00,214.0,5.31,214.0,6.48,12.17,47.59359,-54.27349
2022-12-25 13:14:00+00:00,212.0,6.8,218.0,7.32,13.84,47.59359,-54.27349
2022-12-25 13:24:00+00:00,216.0,7.38,215.0,8.9,13.84,47.59359,-54.27349
2022-12-25 13:34:00+00:00,221.0,7.6,222.0,8.5,13.84,47.59359,-54.27349
2022-12-25 13:44:00+00:00,212.0,7.74,215.0,8.7,13.84,47.59359,-54.27349
2022-12-25 13:54:00+00:00,212.0,8.67,205.0,9.51,13.84,47.59359,-54.27349
2022-12-25 14:04:00+00:00,218.0,6.77,219.0,7.6,13.84,47.59359,-54.27349
2022-12-25 14:14:01+00:00,214.0,7.55,216.0,8.5,14.08,47.59359,-54.27349
2022-12-25 14:24:01+00:00,218.0,6.65,219.0,7.37,14.08,47.59359,-54.27349
2022-12-25 14:34:01+00:00,207.0,7.62,207.0,8.47,14.08,47.59359,-54.27349
2022-12-25 14:44:01+00:00,212.0,8.37,211.0,9.5,14.08,47.59359,-54.27349
2022-12-25 14:54:01+00:00,213.0,9.43,216.0,10.45,14.08,47.59359,-54.27349
2022-12-25 15:04:01+00:00,214.0,9.41,216.0,10.77,14.08,47.59359,-54.27349
2022-12-25 15:14:00+00:00,213.0,9.08,217.0,10.36,13.68,47.59359,-54.27349
2022-12-25 15:24:00+00:00,214.0,8.54,218.0,9.54,13.68,47.59359,-54.27349
2022-12-25 15:34:00+00:00,221.0,8.12,222.0,9.34,13.68,47.59359,-54.27349
2022-12-25 15:44:00+00:00,213.0,9.53,214.0,11.23,13.68,47.59359,-54.27349
2022-12-25 15:54:00+00:00,211.0,9.68,213.0,11.15,13.68,47.59359,-54.27349
2022-12-25 16:04:00+00:00,214.0,9.5,216.0,10.72,13.68,47.59359,-54.27349
2022-12-25 16:14:00+00:00,208.0,9.19,206.0,10.22,13.44,47.59359,-54.27349
2022-12-25 16:24:00+00:00,212.0,9.64,214.0,10.99,13.44,47.59359,-54.27349
2022-12-25 16:34:00+00:00,211.0,9.17,211.0,10.61,13.44,47.59359,-54.27349
2022-12-25 16:44:00+00:00,210.0,9.37,209.0,10.77,13.44,47.59359,-54.27349
2022-12-25 16:54:00+00:00,205.0,9.62,200.0,11.15,13.44,47.59359,-54.27349
2022-12-25 17:04:00+00:00,211.0,10.82,206.0,12.8,13.44,47.59359,-54.27349
2022-12-25 17:14:01+00:00,210.0,9.64,211.0,11.41,13.6,47.59359,-54.27349
2022-12-25 17:24:01+00:00,211.0,8.04,214.0,9.29,13.6,47.59359,-54.27349
2022-12-25 17:34:01+00:00,201.0,9.8,207.0,11.24,13.6,47.59359,-54.27349
2022-12-25 17:44:01+00:00,212.0,10.41,210.0,11.68,13.6,47.59359,-54.27349
2022-12-25 17:54:01+00:00,213.0,9.96,208.0,11.58,13.6,47.59359,-54.27349
2022-12-25 18:04:01+00:00,213.0,10.98,209.0,12.71,13.6,47.59359,-54.27349
2022-12-25 18:14:00+00:00,212.0,11.68,212.0,13.1,14.4,47.59359,-54.27349
2022-12-25 18:24:00+00:00,215.0,11.72,210.0,13.18,14.4,47.59359,-54.27349
2022-12-25 18:34:00+00:00,216.0,9.94,217.0,11.39,14.4,47.59359,-54.27349
2022-12-25 18:44:00+00:00,209.0,11.12,208.0,13.57,14.4,47.59359,-54.27349
2022-12-25 18:54:00+00:00,212.0,10.49,213.0,11.72,14.4,47.59359,-54.27349
2022-12-25 19:04:00+00:00,209.0,10.82,204.0,12.91,14.4,47.59359,-54.27349
2022-12-25 19:14:00+00:00,209.0,12.24,208.0,14.51,12.97,47.59359,-54.27349
2022-12-25 19:24:00+00:00,213.0,11.95,212.0,13.5,12.97,47.59359,-54.27349
2022-12-25 19:34:00+00:00,210.0,11.12,209.0,13.27,12.97,47.59359,-54.27349
2022-12-25 19:44:00+00:00,208.0,10.86,203.0,12.69,12.97,47.59359,-54.27349
2022-12-25 19:54:00+00:00,205.0,13.33,206.0,15.96,12.97,47.59359,-54.27349
2022-12-25 20:04:00+00:00,198.0,14.79,201.0,16.59,12.97,47.59359,-54.27349
2022-12-25 20:14:00+00:00,196.0,16.47,193.0,19.3,12.57,47.59359,-54.27349
2022-12-25 20:24:00+00:00,194.0,15.35,195.0,17.19,12.57,47.59359,-54.27349
2022-12-25 20:34:00+00:00,194.0,14.76,194.0,17.66,12.57,47.59359,-54.27349
2022-12-25 20:44:00+00:00,196.0,14.8,191.0,17.4,12.57,47.59359,-54.27349
2022-12-25 20:54:00+00:00,192.0,16.42,188.0,18.51,12.57,47.59359,-54.27349
2022-12-25 21:04:00+00:00,195.0,16.08,193.0,18.84,12.57,47.59359,-54.27349
2022-12-25 21:14:01+00:00,196.0,14.13,195.0,17.15,12.49,47.59359,-54.27349
2022-12-25 21:24:01+00:00,198.0,14.37,193.0,16.36,12.49,47.59359,-54.27349
2022-12-25 21:34:01+00:00,212.0,15.48,219.0,17.99,12.49,47.59359,-54.27349
2022-12-25 21:44:01+00:00,215.0,14.69,215.0,18.54,12.49,47.59359,-54.27349
2022-12-25 21:54:01+00:00,212.0,13.6,211.0,15.34,12.49,47.59359,-54.27349
2022-12-25 22:04:01+00:00,212.0,13.99,215.0,16.54,12.49,47.59359,-54.27349
2022-12-25 22:14:01+00:00,212.0,12.46,208.0,14.9,12.41,47.59359,-54.27349
2022-12-25 22:24:01+00:00,214.0,12.86,209.0,15.08,12.41,47.59359,-54.27349
2022-12-25 22:34:01+00:00,214.0,12.11,209.0,13.66,12.41,47.59359,-54.27349
2022-12-25 22:44:01+00:00,213.0,10.39,208.0,12.55,12.41,47.59359,-54.27349
2022-12-25 22:54:01+00:00,213.0,11.64,216.0,13.37,12.41,47.59359,-54.27349
2022-12-25 23:04:01+00:00,214.0,10.66,218.0,11.56,12.41,47.59359,-54.27349
2022-12-25 23:14:00+00:00,216.0,9.82,216.0,10.73,12.41,47.59359,-54.27349
2022-12-25 23:24:00+00:00,221.0,8.64,223.0,9.45,12.41,47.59359,-54.27349
2022-12-25 23:34:00+00:00,226.0,8.44,230.0,9.78,12.41,47.59359,-54.27349
2022-12-25 23:44:00+00:00,223.0,8.07,223.0,9.73,12.41,47.59359,-54.27349
2022-12-25 23:54:00+00:00,227.0,9.52,221.0,11.04,12.41,47.59359,-54.27349
